Vertical_Velocity
0 0 1 -0 0 1 1 -0 -1 -1 -0 0 1 1 0 -1 -1 -0 1 -1 -3 -1 -1 -2 -1 0 -2 -3 -2 -1 2 -1 -2
-0 -1 1 -0 0 1 -0 -1 -2 -1 -3 -0 0 -2 -1 -1 -1 -1 1 -0 -2 -2 -3 -1 -1 -1 -2 -1 -1 -0 -1 -2 -1
1 -1 -0 -0 1 1 1 -0 -1 -1 -2 -0 1 0 0 0 1 0 -1 -4 -3 -2 -0 0 -1 -1 -1 -1 -1 -2 -1 -1 -1
-1 0 -1 -1 0 0 1 1 2 1 1 1 0 -0 -0 -1 -1 -2 -2 -1 -1 -0 -0 -1 -2 -2 -2 -1 -1 -1 -0 -1 -1
1 0 0 -0 1 -1 1 3 1 -0 1 -0 -1 -0 -1 -1 -2 -1 2 -1 -1 -1 -1 -1 -1 -0 1 0 -1 -1 -1 -1 -0
0 0 0 0 1 -0 0 0 2 1 1 0 0 -1 0 -1 -2 -2 0 -1 -1 -1 -1 -1 -2 -1 -1 -2 -1 -1 0 -1 0
1 1 -0 -1 1 0 0 0 -0 -0 0 -1 0 -1 -1 -1 -1 0 -1 1 -1 -0 -1 -1 -1 -1 -1 -1 -2 -1 -0 0 0
1 1 2 1 3 2 1 0 -0 0 -1 0 -0 -0 -0 -1 0 -2 -1 -1 -0 -0 -1 0 -1 -1 -0 -1 -1 -1 -0 -1 -0
1 1 0 -0 1 1 1 1 1 0 0 -0 -1 -1 -1 -1 -1 -0 -1 -2 -2 -2 -0 -0 -1 -1 -1 -1 -1 0 -0 -0 -1
1 1 -0 0 1 1 1 0 2 1 0 0 0 -0 -0 0 -0 -1 -0 -0 -1 -1 -1 -0 -1 -1 -0 -0 -0 -0 -1 -0 -1
0 2 0 1 1 1 1 1 -0 -1 -0 -0 -0 -1 -2 -1 -0 1 0 1 -1 -1 -1 -1 -1 -1 -0 -1 0 -0 -0 -1 -1
-1 2 1 1 1 3 2 2 2 1 0 -1 -1 -1 -1 -1 -1 -1 0 -0 0 -1 -0 0 0 0 -1 -2 -2 -2 -2 -1 -1
0 -1 2 1 0 1 2 1 1 1 -0 0 -0 -1 -0 0 0 -0 -1 -1 -1 0 1 0 -1 -1 -1 -0 0 0 -1 -0 -1
2 -2 -3 0 1 -1 -0 -1 -0 -1 -0 0 0 1 0 -1 -0 -1 -1 -1 -1 -1 -0 -0 -1 -1 -1 -1 -0 -0 1 1 -0
1 2 -0 -2 -1 1 1 2 1 1 -0 -1 -0 -1 -0 -0 1 1 1 1 1 -1 -1 -1 -1 -1 -2 -2 -1 -1 -1 0 -0
-1 1 2 1 -1 2 -0 1 0 -1 1 1 -0 -0 -0 0 -1 2 -1 2 3 5 4 1 -0 -1 -1 -0 -1 -3 -3 -1 0
1 1 0 -1 -2 0 1 3 1 1 0 2 1 -2 0 1 1 -0 0 2 -1 -2 1 0 -0 -1 -0 -0 1 -1 -3 -2 -2
2 1 2 2 0 2 2 1 3 7 3 2 -1 -0 -1 2 1 2 2 0 2 -2 -0 2 1 1 -0 0 0 1 1 -0 -4
5 2 2 1 1 1 3 2 1 1 2 1 2 1 3 2 3 0 3 4 2 4 -3 -1 -1 -1 0 2 -1 0 -1 1 0
3 3 3 1 1 1 1 1 2 0 0 3 4 3 2 1 -0 4 5 0 -4 -2 1 0 3 2 -2 1 3 -1 0 -0 -1
Height
3162 3163 3165 3167 3169 3170 3173 3174 3175 3176 3177 3178 3180 3181 3181 3181 3182 3182 3182 3182 3181 3181 3181 3182 3182 3183 3182 3183 3183 3183 3183 3183 3182
3162 3164 3166 3167 3170 3172 3173 3175 3176 3178 3179 3180 3181 3181 3182 3182 3183 3183 3183 3182 3182 3182 3182 3183 3182 3182 3183 3183 3183 3183 3183 3183 3183
3162 3165 3166 3168 3170 3172 3173 3175 3177 3178 3180 3181 3182 3183 3183 3183 3183 3183 3183 3181 3182 3182 3182 3182 3182 3183 3183 3183 3184 3184 3183 3183 3182
3162 3165 3167 3169 3170 3172 3174 3176 3178 3180 3181 3183 3183 3184 3184 3183 3183 3183 3182 3182 3182 3182 3183 3183 3183 3183 3184 3184 3184 3184 3183 3182 3181
3162 3165 3167 3169 3171 3173 3175 3176 3178 3180 3181 3182 3183 3183 3184 3184 3183 3183 3184 3183 3183 3183 3184 3183 3183 3184 3184 3184 3183 3183 3182 3182 3181
3162 3164 3167 3169 3171 3173 3175 3176 3177 3179 3180 3182 3183 3183 3184 3184 3184 3184 3184 3184 3184 3184 3183 3184 3184 3183 3183 3183 3182 3182 3181 3180 3180
3161 3163 3166 3168 3171 3173 3174 3175 3176 3178 3179 3181 3182 3182 3183 3183 3184 3184 3185 3185 3185 3185 3185 3184 3184 3183 3183 3183 3182 3181 3180 3179 3179
3160 3163 3165 3168 3171 3173 3174 3175 3176 3176 3178 3180 3181 3182 3182 3183 3184 3184 3184 3184 3184 3184 3184 3183 3183 3183 3182 3182 3182 3181 3180 3179 3178
3159 3161 3164 3166 3169 3172 3173 3175 3176 3176 3178 3179 3180 3181 3182 3182 3183 3183 3183 3183 3182 3182 3182 3182 3182 3182 3182 3181 3181 3180 3179 3178 3177
3158 3160 3162 3165 3167 3170 3172 3173 3174 3175 3176 3177 3178 3179 3180 3181 3181 3182 3182 3182 3182 3181 3181 3181 3180 3180 3180 3180 3179 3178 3177 3176 3175
3155 3158 3160 3162 3165 3167 3169 3171 3172 3173 3174 3175 3176 3177 3177 3178 3179 3179 3180 3180 3180 3180 3180 3180 3179 3178 3178 3177 3176 3176 3175 3174 3173
3153 3155 3158 3160 3163 3165 3167 3169 3170 3171 3172 3172 3173 3174 3175 3176 3176 3177 3177 3178 3178 3177 3177 3177 3177 3176 3176 3174 3173 3172 3171 3170 3169
3152 3153 3155 3157 3160 3163 3165 3167 3168 3169 3169 3170 3171 3171 3172 3173 3174 3174 3175 3175 3175 3175 3174 3174 3174 3173 3172 3171 3170 3169 3168 3167 3165
3148 3151 3153 3155 3157 3160 3162 3165 3166 3166 3167 3168 3169 3169 3170 3170 3171 3172 3172 3172 3172 3172 3171 3170 3170 3168 3167 3166 3166 3165 3164 3163 3161
3146 3148 3150 3152 3155 3157 3159 3161 3163 3164 3164 3165 3166 3167 3167 3167 3168 3169 3170 3171 3170 3169 3168 3166 3165 3163 3162 3161 3161 3160 3158 3157 3155
3142 3144 3146 3149 3152 3154 3156 3157 3159 3160 3161 3162 3162 3163 3164 3164 3164 3164 3164 3162 3163 3163 3163 3162 3160 3159 3157 3157 3156 3154 3152 3150 3149
3138 3141 3143 3146 3148 3150 3152 3154 3156 3157 3157 3158 3158 3158 3160 3160 3160 3161 3160 3160 3160 3159 3158 3157 3155 3154 3152 3151 3151 3149 3146 3144 3143
3134 3136 3138 3140 3142 3145 3147 3148 3150 3152 3153 3154 3154 3154 3155 3156 3156 3156 3156 3156 3155 3155 3153 3151 3149 3148 3147 3146 3144 3143 3141 3139 3138
3128 3130 3132 3134 3136 3139 3141 3142 3144 3145 3147 3147 3149 3148 3149 3149 3151 3150 3149 3149 3149 3148 3147 3146 3144 3143 3141 3140 3139 3137 3135 3134 3131
3123 3125 3127 3129 3131 3133 3134 3135 3137 3138 3141 3141 3143 3143 3143 3144 3145 3145 3145 3143 3143 3141 3141 3140 3138 3137 3135 3134 3133 3132 3130 3128 3125